#timestamp,LO_Frequency,Hit,StdDev 
1512169215.2,286047005.9,N
1512169235.0,286047001.3,N
1512169235.9,286047001.3,N
1512169255.7,286047000.3,N
1512169275.6,286047002.4,N
1512169295.4,286047002.7,N
1512169315.2,286047001.5,N
1512169335.1,286047003.4,N
1512169336.0,286047003.4,N
1512169355.8,286047005.3,N
1512169375.6,286047008.8,N
1512169395.5,286047010.6,N
1512169415.3,286047012.2,Y
1512169435.1,286047007.5,P
1512169455.9,286047007.5,N
1512169475.7,286047004.7,N
1512169495.5,286047005.2,N
1512169515.3,286047005.5,N
1512169535.2,286047001.8,N
1512169555.0,286047004.5,N
1512169555.9,286047004.5,N
1512169575.7,286047004.8,N
1512169595.6,286047005.3,N
1512169615.4,286047007.4,Y
1512169635.2,286046999.0,P
1512169655.1,286046999.8,N
1512169656.0,286046999.8,N
1512169675.8,286047001.8,N
1512169695.6,286047002.3,N
1512169715.5,286046999.8,N
1512169735.3,286047002.7,N
1512169755.1,286047005.2,N
1512169775.9,286047003.5,N
1512169795.7,286046998.3,N
1512169815.5,286046999.3,N
1512169835.4,286047001.0,N
1512169855.2,286046998.1,N
1512169875.0,286046998.4,N
1512169875.9,286046998.4,N
1512169895.8,286046995.3,N
1512169915.6,286046998.9,N
1512169935.4,286046997.4,N
1512169955.2,286046995.5,N
1512169975.1,286046996.1,N
1512169976.0,286046996.1,N
1512169995.8,286046993.8,N
1512170015.6,286046990.4,Y
1512170035.5,286046997.9,P
1512170055.3,286046991.4,P
1512170075.1,286046987.1,P
1512170095.9,286046985.6,N
1512170115.7,286046987.1,N
1512170135.5,286046992.2,N
1512170155.4,286046990.7,N
1512170175.2,286046989.3,N
1512170195.0,286046987.4,N
1512170195.9,286046987.4,N
1512170215.8,286046989.7,N
1512170235.6,286046987.3,Y
1512170255.4,286046998.8,P
1512170275.3,286047001.2,N
1512170295.1,286046997.2,N
1512170296.0,286046997.2,N
1512170315.8,286046995.7,N
1512170335.7,286046993.4,N
1512170355.5,286046991.8,N
1512170375.3,286046994.2,N
1512170395.1,286046990.5,N
1512170415.9,286046991.2,N
1512170435.7,286046993.2,N
1512170455.5,286046989.2,Y
1512170475.4,286046996.3,P
1512170495.2,286046995.0,P
1512170515.0,286046996.2,P
1512170516.0,286046996.2,Y
1512170535.8,286047001.4,P
1512170555.6,286047001.2,N
1512170575.4,286046998.5,N
1512170595.3,286046995.0,N
1512170615.1,286046998.7,N
1512170635.8,286047001.0,N
1512170655.7,286047001.2,N
1512170675.5,286046995.3,N
1512170695.3,286046993.3,N
1512170715.2,286046995.3,N
1512170735.9,286046996.8,N
1512170755.7,286047000.9,N
1512170775.6,286046998.2,N
1512170795.4,286046999.0,N
1512170815.2,286047001.1,N
1512170835.0,286047001.2,N
1512170835.9,286047001.2,N
1512170855.8,286046998.4,N
1512170875.6,286046995.8,N
1512170895.4,286046992.7,N
1512170915.3,286046990.0,Y
1512170935.1,286046988.0,P
1512170955.8,286046990.0,N
1512170975.7,286046990.6,N
1512170995.5,286046992.9,N
1512171015.3,286046992.3,N
1512171035.2,286046994.0,N
1512171055.9,286046992.3,N
1512171075.7,286046996.3,N
1512171095.6,286046990.4,Y
1512171115.4,286046997.5,P
1512171135.2,286046996.0,N
1512171155.1,286046995.7,N
1512171156.0,286046995.7,N
1512171175.8,286046994.0,Y
1512171195.6,286047000.1,P
1512171215.5,286047003.1,N
1512171235.3,286047005.1,N
1512171255.1,286047001.3,N
1512171275.9,286047004.9,N
1512171295.7,286047005.8,N
1512171315.5,286047006.7,N
1512171335.4,286047006.2,N
1512171355.2,286047007.3,N
1512171375.0,286047005.7,N
1512171375.9,286047005.7,N
1512171395.7,286047004.9,N
1512171415.6,286047004.9,N
1512171435.4,286047005.9,N
1512171455.2,286047003.0,N
1512171475.1,286047001.6,N
1512171476.0,286047001.6,N
1512171495.8,286047002.6,N
1512171515.6,286047006.5,N
1512171535.5,286047005.0,N
1512171555.3,286047007.0,N
1512171575.1,286047011.8,Y
1512171595.9,286047007.5,P
1512171615.7,286047002.7,N
1512171635.5,286047001.6,N
1512171655.4,286047003.5,N
1512171675.2,286047003.1,N
1512171695.0,286047007.2,Y
1512171695.9,286047007.2,P
1512171715.8,286047001.4,N
1512171735.6,286047002.2,N
1512171755.4,286046998.7,N
1512171775.3,286047000.2,N
1512171795.1,286046996.5,N
1512171796.0,286046996.5,N
1512171815.8,286046995.1,N
1512171835.7,286046999.5,N
1512171855.5,286047001.0,N
1512171875.3,286047000.2,N
1512171895.1,286047004.9,N
1512171915.9,286047006.8,N
1512171935.7,286047007.5,N
1512171955.5,286047004.8,N
1512171975.4,286047007.1,N
1512171995.2,286047006.1,N
1512172015.0,286047006.6,N
1512172015.9,286047006.6,N
1512172035.8,286047004.8,N
1512172055.6,286047004.5,N
1512172075.4,286047015.6,Y
1512172095.3,286047014.2,P
1512172115.1,286047021.0,P
1512172116.0,286047021.0,N
1512172135.8,286047023.7,Y
1512172155.7,286047017.8,P
1512172175.5,286047026.7,P
1512172195.3,286047033.9,P
1512172215.2,286047037.7,Y
1512172235.9,286047016.5,P
1512172255.7,286047018.0,P
1512172275.6,286047021.4,P
1512172295.4,286047022.8,Y
1512172315.2,286047007.3,P
1512172335.1,286047008.7,N
1512172336.0,286047008.7,N
1512172355.8,286047008.0,N
1512172375.6,286047013.3,N
1512172395.5,286047016.0,Y
1512172415.3,286047004.8,P
1512172435.1,286047005.5,N
1512172455.9,286047006.8,N
1512172475.7,286047010.3,Y
1512172495.5,286047003.8,P
1512172515.4,286047005.1,P
1512172535.2,286047008.0,P
1512172555.0,286047007.7,Y
1512172555.9,286047007.7,P
1512172575.8,286047001.3,N
1512172595.6,286047003.6,N
1512172615.4,286047003.7,N
1512172635.7,286047005.4,N
1512172655.6,286047004.6,N
1512172675.4,286047005.8,Y
1512172695.2,286047005.3,P
1512172715.1,286047004.1,P
1512172716.0,286047004.1,P
1512172735.8,286047004.3,Y
1512172755.6,286047001.0,P
1512172775.5,286047001.5,N
1512172795.3,286047001.5,N
